This demonstration page uses our WeatherBlox Daily Observations layout. Learn more.

Left ArrowRight Arrow

Hourly Observations for August 7, 2022

Temp ( °F °C ) Dew Point ( °F °C ) Humidity (%) Winds ( mph kmh ) Pressure ( in mb ) Visibility ( mi km ) Precip ( " mm )
12:56 am 00:56 Mostly Cloudy 83 28.2 71 21.5 67 67 ESE 3 6 29.92 1013 10 16 0.00 0.00
1:56 am 01:56 Partly Cloudy 84 28.8 70 21 63 63 SW 9 15 29.93 1014 10 16 0.00 0.00
2:56 am 02:56 Clear 81 27.3 70 21.3 70 70 SSE 8 13 29.92 1013 10 16 0.00 0.00
3:56 am 03:56 Partly Cloudy 80 26.7 70 21 71 71 S 8 13 29.93 1013 10 16 0.00 0.00
4:56 am 04:56 Partly Cloudy 79 26.1 69 20.8 73 73 SE 5 7 29.93 1013 10 16 0.00 0.00
5:56 am 05:56 Mostly Cloudy 78 25.8 69 20.8 74 74 SSE 6 9 29.93 1013 10 16 0.00 0.00
6:56 am 06:56 Partly Cloudy 78 25.6 69 20.8 75 75 SE 3 6 29.96 1015 10 16 0.00 0.00
7:56 am 07:56 undefined 80 26.8 69 20.8 70 70 SE 6 9 29.97 1015 10 16 0.00 0.00
8:56 am 08:56 Mostly Cloudy 82 28 70 21 66 66 SE 12 19 29.96 1015 10 16 0.00 0.00
9:56 am 09:56 Mostly Cloudy 81 27.2 70 21.2 70 70 SE 6 9 29.96 1015 10 16 0.00 0.00
10:56 am 10:56 Mostly Cloudy 86 30 70 21.3 60 60 ESE 6 9 29.96 1015 10 16 0.00 0.00
11:56 am 11:56 Mostly Sunny 90 32.4 71 21.5 53 53 SE 9 15 29.95 1014 10 16 0.00 0.00
12:56 pm 12:56 Mostly Sunny 93 33.9 70 21 47 47 SSW 9 15 29.92 1013 10 16 0.00 0.00
1:56 pm 13:56 Mostly Sunny 96 35.8 67 19.2 38 38 SW 14 22 29.92 1013 10 16 0.00 0.00
2:56 pm 14:56 Sunny 97 36 67 19.4 38 38 WSW 12 19 29.91 1013 10 16 0.00 0.00
3:56 pm 15:56 Mostly Cloudy 95 35 68 20.1 42 42 SW 17 28 29.91 1013 10 16 0.00 0.00
3:58 pm 15:58 Mostly Cloudy with Light Showers 95 35 68 20 41 41 SW 18 30 29.91 1013 10 16 0.00 0.00
4:56 pm 16:56 Partly Cloudy 94 34.5 69 20.4 44 44 W 9 15 29.91 1013 10 16 0.00 0.00
5:56 pm 17:56 Mostly Cloudy 90 32.3 72 22.1 55 55 WNW 12 19 29.90 1013 10 16 0.00 0.00
6:56 pm 18:56 Mostly Cloudy 88 31 74 23.1 63 63 NW 12 19 29.92 1013 10 16 0.00 0.00
7:56 pm 19:56 Partly Cloudy 83 28.6 72 22.3 69 69 NW 16 26 29.93 1014 10 16 0.00 0.00
8:56 pm 20:56 Clear 76 24.6 68 20.1 76 76 NW 20 31 29.96 1015 10 16 0.00 0.00
9:56 pm 21:56 Mostly Cloudy 75 23.7 68 19.8 79 79 NW 12 19 30.02 1017 10 16 0.00 0.00
10:36 pm 22:36 Cloudy with Thunderstorms 73 23 68 20 83 83 NNW 13 20 30.02 1017 10 16 0.00 0.00
10:56 pm 22:56 Cloudy with Thunderstorms 74 23.2 67 19.7 81 81 N 10 17 30.01 1016 10 16 0.00 0.00
11:56 pm 23:56 Cloudy with Thunderstorms 72 22.3 67 19.4 84 84 NW 12 19 30.04 1017 10 16 0.00 0.00

Powered by AerisWeather